Location: Villingen
(48.0639°N, 8.4609°E)
Time: 03:42:19
(UTC+02:00)

OTV 5 (USA 277) - Visible Passes

Search period start: 23 July 2018 00:00
Search period end: 02 August 2018 00:00
Orbit: 312 x 321 km, 54.5° (Epoch: 05 July)

Date Brightness Start Highest point End Pass type
(mag) Time Alt. Az. Time Alt. Az. Time Alt. Az.
30 Jul ? 04:46:56 10° SSE 04:47:58 12° SE 04:48:59 10° ESE visible
31 Jul ? 04:59:58 11° SSW 05:02:10 26° SE 05:04:30 10° E visible
01 Aug ? 05:13:56 11° SW 05:16:30 62° SE 05:19:11 10° ENE visible
